Location: La Fredeussais
(48.1780°N, 1.3980°W)
Time: 09:48:18
(UTC+00:00)

JB-3 - Pass Details

Date: 09 May 2021
Orbit: 524 x 590 km, 97.3° (Epoch: 12 June)

Event Time Altitude Azimuth Distance (km) Brightness Sun altitude
Rises 21:18:28 0° 15° (NNE) 2,726 8.4 -14.8°
Reaches altitude 10° 21:20:38 10° 19° (NNE) 1,818 7.4 -15.0°
Maximum altitude 21:24:31 61° 100° (E) 614 4.3 -15.4°
Enters shadow 21:26:31 26° 173° (S) 1,072 5.3 -15.6°
